GW1031 Weather Reports


Display with metric or nautical units.
time (UTC)temp
F
wind
direction
speed
MPH
gust
MPH
rain 1hr
in
rain 24hr
in
rain mn
in
humidity
%
barometer
mb
20260505001621 65 220 0.0 0.0 0.00 0.03 0.03 27 1012.0
20260505001119 65 151 0.0 1.0 0.00 0.03 0.03 27 1011.7
20260505000615 65 203 0.0 0.0 0.00 0.03 0.03 28 1011.9
20260505000114 65 130 0.0 0.0 0.00 0.03 0.03 27 1012.1
20260504235609 65 221 0.0 1.0 0.00 0.03 0.03 25 1012.0
20260504235106 65 247 0.0 1.0 0.00 0.03 0.03 25 1011.9
20260504234603 65 148 1.0 2.0 0.00 0.03 0.03 25 1012.1
20260504234100 66 238 1.0 1.0 0.00 0.03 0.03 24 1012.0
20260504233555 66 199 2.0 3.0 0.00 0.03 0.03 25 1012.0
20260504233052 67 229 1.0 1.0 0.00 0.03 0.03 24 1012.1
20260504232550 67 190 1.0 1.0 0.00 0.03 0.03 24 1012.4
20260504232047 65 276 1.0 1.0 0.00 0.03 0.03 25 1012.1
20260504231543 66 283 1.0 1.0 0.00 0.03 0.03 25 1012.0
20260504231040 65 277 3.0 5.0 0.00 0.03 0.03 24 1011.9
20260504230536 66 219 4.0 6.0 0.00 0.03 0.03 24 1012.1
20260504230035 66 223 0.0 1.0 0.00 0.03 0.03 24 1012.0
20260504225532 66 224 1.0 2.0 0.00 0.03 0.03 24 1012.0
20260504225029 66 256 0.0 1.0 0.00 0.03 0.03 28 1011.8
20260504224525 66 168 3.0 5.0 0.00 0.03 0.03 28 1012.0
20260504224023 66 249 3.0 5.0 0.00 0.03 0.03 26 1011.8
20260504223519 66 191 3.0 6.0 0.00 0.03 0.03 27 1011.9
20260504223015 67 128 4.0 6.0 0.00 0.03 0.03 25 1011.9
20260504222512 67 99 1.0 1.0 0.00 0.03 0.03 26 1011.9
20260504222010 67 269 1.0 2.0 0.00 0.03 0.03 27 1011.9
20260504221507 67 142 2.0 3.0 0.00 0.03 0.03 28 1012.0
20260504221004 67 188 2.0 2.0 0.00 0.03 0.03 28 1011.9
20260504220500 68 117 0.0 1.0 0.00 0.03 0.03 28 1011.9
20260504215957 68 242 1.0 2.0 0.00 0.03 0.03 26 1011.9
20260504215453 68 47 2.0 2.0 0.00 0.03 0.03 29 1011.9
20260504214950 68 209 1.0 2.0 0.00 0.03 0.03 30 1012.1
20260504214446 68 212 1.0 2.0 0.00 0.03 0.03 30 1012.3
20260504213943 68 168 1.0 2.0 0.00 0.03 0.03 28 1012.3
20260504213439 68 214 1.0 1.0 0.00 0.03 0.03 28 1012.4
20260504212937 68 187 3.0 3.0 0.00 0.03 0.03 30 1012.8
20260504212432 67 85 1.0 1.0 0.00 0.03 0.03 35 1012.5
20260504211931 66 277 1.0 1.0 0.00 0.03 0.03 32 1012.4
20260504211426 68 279 3.0 5.0 0.00 0.03 0.03 29 1013.0
20260504210924 70 181 0.0 0.0 0.00 0.03 0.03 31 1012.6
20260504210421 70 99 2.0 2.0 0.00 0.03 0.03 34 1012.9
20260504205918 68 173 2.0 3.0 0.00 0.03 0.03 30 1012.9
20260504205416 67 337 2.0 3.0 0.00 0.03 0.03 34 1012.9
20260504204914 67 25 1.0 1.0 0.00 0.03 0.03 32 1013.2
20260504204412 67 241 2.0 2.0 0.00 0.03 0.03 34 1013.4
20260504203911 68 187 1.0 2.0 0.00 0.03 0.03 35 1013.2
20260504203408 68 236 1.0 2.0 0.00 0.03 0.03 33 1013.2
20260504202903 67 299 1.0 1.0 0.00 0.03 0.03 33 1013.2
20260504202401 67 183 2.0 3.0 0.00 0.03 0.03 33 1013.6
20260504201857 68 258 2.0 3.0 0.00 0.03 0.03 34 1013.6
20260504201355 66 73 1.0 1.0 0.00 0.03 0.03 34 1013.5
20260504200852 65 237 5.0 5.0 0.00 0.03 0.03 35 1013.5
20260504200348 67 289 2.0 2.0 0.00 0.03 0.03 34 1013.6
20260504195845 67 114 1.0 2.0 0.00 0.03 0.03 34 1013.8
20260504195340 66 177 1.0 2.0 0.00 0.03 0.03 33 1013.6
20260504194838 66 4 2.0 2.0 0.00 0.03 0.03 33 1013.5
20260504194333 67 175 2.0 2.0 0.00 0.03 0.03 35 1013.6
20260504193829 66 100 3.0 3.0 0.00 0.03 0.03 35 1013.6
20260504193327 66 65 1.0 1.0 0.00 0.03 0.03 37 1013.6
20260504192826 66 182 3.0 3.0 0.00 0.03 0.03 34 1013.8
20260504192323 66 194 1.0 1.0 0.00 0.03 0.03 34 1013.8
20260504191822 67 143 0.0 1.0 0.00 0.03 0.03 36 1013.8
20260504191319 67 295 1.0 2.0 0.00 0.03 0.03 37 1013.7
20260504190814 65 116 1.0 2.0 0.00 0.03 0.03 37 1013.8
20260504190310 65 109 1.0 1.0 0.00 0.03 0.03 38 1013.8
20260504185807 65 258 3.0 3.0 0.00 0.03 0.03 37 1014.2
20260504185305 65 171 3.0 5.0 0.00 0.03 0.03 38 1014.3
20260504184800 66 242 2.0 2.0 0.00 0.03 0.03 39 1014.1
20260504184256 66 264 3.0 5.0 0.00 0.03 0.03 40 1014.1
20260504183752 65 263 2.0 2.0 0.00 0.03 0.03 39 1014.0
20260504183249 64 118 1.0 2.0 0.00 0.03 0.03 40 1014.3
20260504182747 64 124 3.0 3.0 0.00 0.03 0.03 39 1014.5
20260504182244 65 238 1.0 1.0 0.00 0.03 0.03 40 1014.1
20260504181742 65 256 2.0 2.0 0.00 0.03 0.03 42 1014.5
20260504181239 64 240 1.0 2.0 0.00 0.03 0.03 41 1014.7
20260504180738 64 132 1.0 2.0 0.00 0.03 0.03 41 1014.9
20260504180236 64 255 2.0 3.0 0.00 0.03 0.03 42 1014.8
20260504175733 64 110 0.0 0.0 0.00 0.03 0.03 46 1014.6
20260504175230 63 151 0.0 1.0 0.00 0.03 0.03 43 1014.8
20260504174728 63 313 1.0 2.0 0.00 0.03 0.03 45 1014.7
20260504174226 64 294 3.0 3.0 0.00 0.03 0.03 41 1014.7
20260504173722 63 141 1.0 1.0 0.00 0.03 0.03 42 1014.7
20260504173219 62 328 2.0 2.0 0.00 0.03 0.03 44 1014.8
20260504172715 63 170 2.0 2.0 0.00 0.03 0.03 42 1015.1
20260504172212 63 261 1.0 1.0 0.00 0.03 0.03 44 1014.9
20260504171709 62 260 2.0 2.0 0.00 0.03 0.03 44 1014.9
20260504171206 60 86 1.0 2.0 0.00 0.03 0.03 50 1014.9
20260504170702 60 125 3.0 3.0 0.00 0.03 0.03 50 1014.9
20260504170200 60 137 0.0 0.0 0.00 0.03 0.03 55 1014.9
20260504160118 55 93 0.0 1.0 0.00 0.03 0.03 67 1015.7
20260504151045 52 136 0.0 0.0 0.00 0.03 0.03 71 1016.0
20260504150543 53 115 0.0 1.0 0.00 0.03 0.03 73 1016.3
20260504141008 49 128 0.0 0.0 0.00 0.03 0.03 84 1016.5
20260504140505 48 123 0.0 0.0 0.00 0.03 0.03 85 1016.5
20260504130430 44 128 0.0 0.0 0.00 0.03 0.03 94 1016.2
20260504110317 44 194 0.0 0.0 0.00 0.03 0.03 93 1016.2
20260504100235 45 186 0.0 0.0 0.05 0.03 0.03 92 1016.7
20260504081628 49 151 0.0 0.0 0.00 0.00 0.00 73 1016.2
20260504081124 49 104 0.0 0.0 0.00 0.00 0.00 73 1016.2
20260504080621 49 125 0.0 0.0 0.00 0.00 0.00 73 1016.3
20260504080117 49 105 0.0 0.0 0.00 0.00 0.00 75 1016.4
20260504050433 59 248 3.0 5.0 0.00 0.00 0.00 39 1017.3
20260504045930 58 38 3.0 3.0 0.00 0.00 0.00 40 1017.1
20260504045426 58 287 0.0 1.0 0.00 0.00 0.00 40 1016.9
20260504044922 58 71 0.0 0.0 0.00 0.00 0.00 40 1016.8
20260504044420 56 37 1.0 2.0 0.00 0.00 0.00 41 1016.8
20260504043917 55 110 1.0 1.0 0.00 0.00 0.00 41 1016.7
20260504043414 55 48 2.0 2.0 0.00 0.00 0.00 43 1016.4
20260504042912 54 146 0.0 0.0 0.00 0.00 0.00 47 1016.5
20260504042408 55 233 0.0 0.0 0.00 0.00 0.00 49 1016.2
20260504041904 54 130 0.0 0.0 0.00 0.00 0.00 43 1015.9
20260504041401 54 195 0.0 0.0 0.00 0.00 0.00 46 1015.8
20260504040856 54 123 0.0 0.0 0.00 0.00 0.00 46 1016.2
20260504040354 54 124 0.0 0.0 0.00 0.00 0.00 46 1016.2
20260504035850 53 246 0.0 0.0 0.00 0.00 0.00 45 1015.8
20260504035348 54 217 0.0 0.0 0.00 0.00 0.00 49 1016.3
20260504034844 54 146 0.0 0.0 0.00 0.00 0.00 46 1015.8
20260504034342 54 97 1.0 1.0 0.00 0.00 0.00 45 1015.7
20260504033839 53 126 0.0 0.0 0.00 0.00 0.00 52 1016.0
20260504033337 52 162 0.0 1.0 0.00 0.00 0.00 51 1015.6
20260504032833 52 148 0.0 0.0 0.00 0.00 0.00 57 1015.6
20260504032330 52 178 0.0 0.0 0.00 0.00 0.00 49 1015.4
20260504031827 52 131 0.0 0.0 0.00 0.00 0.00 59 1015.2
20260504031324 52 185 0.0 0.0 0.00 0.00 0.00 51 1015.2
20260504030820 52 193 0.0 0.0 0.00 0.00 0.00 49 1015.2
20260504030318 52 159 0.0 0.0 0.00 0.00 0.00 56 1014.9
20260504025814 52 154 0.0 0.0 0.00 0.00 0.00 56 1014.9
20260504025311 51 172 0.0 0.0 0.00 0.00 0.00 51 1014.9
20260504024808 52 174 0.0 0.0 0.00 0.00 0.00 54 1014.8
20260504024304 52 209 0.0 0.0 0.00 0.00 0.00 56 1015.1
20260504023801 52 181 0.0 0.0 0.00 0.00 0.00 51 1014.9
20260504023257 52 142 0.0 0.0 0.00 0.00 0.00 47 1014.7
20260504022754 52 151 0.0 0.0 0.00 0.00 0.00 53 1014.8
20260504022250 53 153 0.0 0.0 0.00 0.00 0.00 48 1014.6
20260504021747 54 153 0.0 0.0 0.00 0.00 0.00 48 1014.5
20260504021245 55 142 0.0 0.0 0.00 0.00 0.00 46 1014.8
20260504020741 56 120 0.0 0.0 0.00 0.00 0.00 47 1014.7
20260504020237 58 191 0.0 0.0 0.00 0.00 0.00 38 1014.5
20260504015734 59 217 0.0 0.0 0.00 0.00 0.00 36 1014.5
20260504015231 60 172 0.0 0.0 0.00 0.00 0.00 35 1014.6
20260504014726 60 166 0.0 0.0 0.00 0.00 0.00 33 1014.6
20260504014223 61 199 0.0 0.0 0.00 0.00 0.00 32 1014.3
20260504013721 62 200 0.0 0.0 0.00 0.00 0.00 32 1014.2
20260504013218 62 203 0.0 0.0 0.00 0.00 0.00 30 1014.6
20260504012714 63 215 0.0 0.0 0.00 0.00 0.00 29 1014.5
20260504012213 64 201 0.0 0.0 0.00 0.00 0.00 27 1014.3
20260504011709 64 183 0.0 0.0 0.00 0.00 0.00 27 1014.2
20260504011206 65 219 0.0 0.0 0.00 0.00 0.00 26 1014.6
20260504010702 66 209 0.0 0.0 0.00 0.00 0.00 24 1014.3
20260504010157 67 236 1.0 2.0 0.00 0.00 0.00 23 1014.2
20260504005654 67 259 0.0 1.0 0.00 0.00 0.00 24 1014.3
20260504005151 68 221 0.0 0.0 0.00 0.00 0.00 22 1014.2
20260504004649 68 281 0.0 1.0 0.00 0.00 0.00 22 1014.3
20260504004146 68 187 1.0 1.0 0.00 0.00 0.00 21 1014.5
20260504003642 70 223 1.0 1.0 0.00 0.00 0.00 20 1014.3
20260504003139 72 139 0.0 0.0 0.00 0.00 0.00 22 1014.6
20260504002636 73 179 0.0 0.0 0.00 0.00 0.00 20 1014.6
20260504002134 72 228 0.0 0.0 0.00 0.00 0.00 20 1014.5